This is the latest recevied weather packets stored in our database for station/object JO1YDG-13. If no packets are shown the sender has not sent any weather packets the latest 10 day(s).
| Time | Temp. | Humidity | Pressure | Rain* | Wind** | Luminosity | Snow |
|---|---|---|---|---|---|---|---|
| 1777519567 | 17.22° C | 67% | 991.3 hPa | 0 mm | - | - | - |
| 1777519266 | 17.78° C | 64% | 991.3 hPa | 0 mm | - | - | - |
| 1777518966 | 17.22° C | 62% | 991.3 hPa | 0 mm | - | - | - |
| 1777518666 | 17.78° C | 62% | 991.3 hPa | 0 mm | - | - | - |
| 1777518368 | 17.22° C | 63% | 991.3 hPa | 0 mm | - | - | - |
| 1777518067 | 17.22° C | 62% | 991.3 hPa | 0 mm | - | - | - |
| 1777517767 | 17.22° C | 62% | 991.3 hPa | 0 mm | - | - | - |
| 1777517466 | 17.78° C | 63% | 991.4 hPa | 0 mm | - | - | - |
| 1777517168 | 17.22° C | 66% | 991.5 hPa | 0 mm | - | - | - |
| 1777516867 | 17.22° C | 67% | 991.5 hPa | 0 mm | - | - | - |
| 1777516567 | 17.78° C | 66% | 991.6 hPa | 0 mm | - | - | - |
| 1777516267 | 17.22° C | 65% | 991.6 hPa | 0 mm | - | - | - |
| 1777515967 | 17.22° C | 65% | 991.7 hPa | 0 mm | - | - | - |
| 1777515667 | 17.22° C | 65% | 991.7 hPa | 0 mm | - | - | - |
| 1777515366 | 17.22° C | 66% | 991.7 hPa | 0 mm | - | - | - |
| 1777515066 | 17.22° C | 64% | 991.8 hPa | 0 mm | - | - | - |
| 1777514768 | 17.78° C | 63% | 991.8 hPa | 0 mm | - | - | - |
| 1777514468 | 17.22° C | 64% | 992 hPa | 0 mm | - | - | - |
| 1777514167 | 17.22° C | 63% | 992 hPa | 0 mm | - | - | - |
| 1777513867 | 17.22° C | 62% | 991.8 hPa | 0 mm | - | - | - |
| 1777513567 | 17.22° C | 62% | 991.8 hPa | 0 mm | - | - | - |
| 1777513267 | 17.22° C | 62% | 991.8 hPa | 0 mm | - | - | - |
| 1777512967 | 17.22° C | 62% | 991.7 hPa | 0 mm | - | - | - |
| 1777512366 | 17.22° C | 62% | 991.8 hPa | 0 mm | - | - | - |
| 1777512066 | 16.67° C | 63% | 991.8 hPa | 0 mm | - | - | - |
* Rain latest hour (hover to see other rain measurements)
** Current wind speed in m/s (hover to see current wind gust speed)